GW6047 Weather Reports


Display with metric or nautical units.
time (UTC)temp
F
wind
direction
speed
MPH
gust
MPH
rain 1hr
in
rain 24hr
in
rain mn
in
humidity
%
barometer
mb
20260503212417 61 261 5.0 7.0 0.00 0.00 0.00 37 1012.0
20260503211915 61 217 7.0 9.0 0.00 0.00 0.00 35 1012.1
20260503211412 59 231 8.0 10.0 0.00 0.00 0.00 35 1012.0
20260503210907 59 234 8.0 9.0 0.00 0.00 0.00 36 1012.1
20260503210405 60 232 5.0 6.0 0.00 0.00 0.00 34 1012.2
20260503205904 60 190 2.0 2.0 0.00 0.00 0.00 35 1012.2
20260503205401 60 251 8.0 9.0 0.00 0.00 0.00 33 1012.0
20260503204858 60 219 6.0 10.0 0.00 0.00 0.00 33 1012.2
20260503204355 60 202 6.0 9.0 0.00 0.00 0.00 36 1011.9
20260503203852 60 217 5.0 8.0 0.00 0.00 0.00 32 1012.2
20260503203349 60 219 8.0 9.0 0.00 0.00 0.00 34 1012.1
20260503202846 59 203 6.0 9.0 0.00 0.00 0.00 37 1012.1
20260503202345 59 205 10.0 13.0 0.00 0.00 0.00 36 1012.3
20260503201843 61 206 6.0 9.0 0.00 0.00 0.00 33 1012.2
20260503201339 61 249 7.0 8.0 0.00 0.00 0.00 35 1012.2
20260503200837 61 205 6.0 9.0 0.00 0.00 0.00 36 1012.2
20260503200332 60 213 6.0 9.0 0.00 0.00 0.00 33 1012.1
20260503195830 59 225 7.0 9.0 0.00 0.00 0.00 35 1012.1
20260503195326 59 234 6.0 8.0 0.00 0.00 0.00 36 1012.3
20260503194824 59 221 8.0 13.0 0.00 0.00 0.00 35 1012.3
20260503194319 59 173 4.0 5.0 0.00 0.00 0.00 37 1012.6
20260503193816 60 200 13.0 14.0 0.00 0.00 0.00 35 1012.6
20260503193312 60 198 7.0 10.0 0.00 0.00 0.00 36 1012.7
20260503192808 59 213 3.0 5.0 0.00 0.00 0.00 36 1012.8
20260503192305 59 204 9.0 11.0 0.00 0.00 0.00 36 1012.9
20260503191800 58 220 12.0 14.0 0.00 0.00 0.00 36 1012.7
20260503191257 59 285 5.0 8.0 0.00 0.00 0.00 38 1013.0
20260503190754 59 221 8.0 10.0 0.00 0.00 0.00 39 1012.9
20260503190250 59 239 8.0 11.0 0.00 0.00 0.00 36 1012.9
20260503185748 59 214 7.0 9.0 0.00 0.00 0.00 37 1013.1
20260503185243 60 171 6.0 7.0 0.00 0.00 0.00 36 1013.2
20260503184738 59 232 7.0 8.0 0.00 0.00 0.00 38 1013.1
20260503184235 59 220 8.0 9.0 0.00 0.00 0.00 36 1013.3
20260503183731 59 216 4.0 6.0 0.00 0.00 0.00 36 1013.2
20260503183229 59 218 10.0 14.0 0.00 0.00 0.00 44 1013.5
20260503182726 58 217 4.0 5.0 0.00 0.00 0.00 38 1013.5
20260503182225 58 256 7.0 8.0 0.00 0.00 0.00 38 1013.4
20260503181721 58 225 9.0 10.0 0.00 0.00 0.00 37 1013.4
20260503181218 59 185 6.0 7.0 0.00 0.00 0.00 35 1013.3
20260503180715 59 217 9.0 10.0 0.00 0.00 0.00 37 1013.5
20260503180213 59 102 5.0 8.0 0.00 0.00 0.00 34 1013.7
20260503175710 59 174 4.0 6.0 0.00 0.00 0.00 35 1013.5
20260503175208 58 215 1.0 2.0 0.00 0.00 0.00 35 1013.6
20260503174703 59 238 5.0 7.0 0.00 0.00 0.00 41 1013.5
20260503174201 59 213 5.0 7.0 0.00 0.00 0.00 36 1013.4
20260503173656 58 238 14.0 17.0 0.00 0.00 0.00 36 1013.7
20260503173152 58 273 9.0 14.0 0.00 0.00 0.00 39 1013.1
20260503172649 57 245 6.0 8.0 0.00 0.00 0.00 37 1013.6
20260503172147 58 228 9.0 13.0 0.00 0.00 0.00 36 1013.4
20260503171643 57 191 5.0 6.0 0.00 0.00 0.00 34 1013.7
20260503171141 57 188 2.0 2.0 0.00 0.00 0.00 33 1013.8
20260503170637 57 192 9.0 10.0 0.00 0.00 0.00 37 1013.9
20260503170134 56 198 4.0 5.0 0.00 0.00 0.00 38 1014.0
20260503150526 51 157 3.0 3.0 0.00 0.00 0.00 47 1015.1
20260503131419 46 255 5.0 6.0 0.00 0.00 0.00 58 1015.7
20260503130915 45 200 5.0 7.0 0.00 0.00 0.00 56 1015.7
20260503130413 46 222 2.0 3.0 0.00 0.00 0.00 57 1015.8
20260503110817 41 205 3.0 5.0 0.00 0.00 0.00 64 1015.3
20260503110314 41 222 3.0 3.0 0.00 0.00 0.00 62 1015.3
20260503100240 39 208 1.0 1.0 0.00 0.00 0.00 66 1014.6
20260503090200 41 188 0.0 0.0 0.00 0.00 0.00 65 1014.2
20260503081630 41 206 0.0 1.0 0.00 0.00 0.00 61 1014.2
20260503081127 41 194 1.0 2.0 0.00 0.00 0.00 58 1014.0
20260503080622 41 272 2.0 5.0 0.00 0.00 0.00 58 1013.9
20260503080119 41 179 1.0 1.0 0.00 0.00 0.00 59 1014.2
20260503072556 40 203 2.0 2.0 0.00 0.00 0.00 61 1013.6
20260503072054 41 234 0.0 1.0 0.00 0.00 0.00 63 1013.6
20260503071550 41 216 2.0 2.0 0.00 0.00 0.00 59 1013.8
20260503071047 41 184 3.0 5.0 0.00 0.00 0.00 61 1013.6
20260503070543 41 174 3.0 6.0 0.00 0.00 0.00 66 1013.7
20260503054957 43 227 1.0 2.0 0.00 0.00 0.00 58 1013.4
20260503054453 43 217 2.0 2.0 0.00 0.00 0.00 58 1013.4
20260503053950 42 249 3.0 5.0 0.00 0.00 0.00 60 1013.6
20260503053448 43 208 4.0 5.0 0.00 0.00 0.00 57 1013.3
20260503052945 43 225 4.0 5.0 0.00 0.00 0.00 58 1013.4
20260503052442 43 196 6.0 9.0 0.00 0.00 0.00 58 1013.5
20260503051938 44 191 4.0 5.0 0.00 0.00 0.00 58 1013.4
20260503051434 44 208 5.0 5.0 0.00 0.00 0.00 59 1013.7
20260503050932 44 210 2.0 2.0 0.00 0.00 0.00 60 1013.8
20260503050427 44 192 4.0 7.0 0.00 0.00 0.00 58 1013.8
20260503045926 44 203 0.0 1.0 0.00 0.00 0.00 59 1013.7
20260503045423 44 223 3.0 3.0 0.00 0.00 0.00 57 1013.7
20260503044919 44 169 4.0 6.0 0.00 0.00 0.00 60 1013.7
20260503044416 44 209 1.0 1.0 0.00 0.00 0.00 58 1013.8
20260503043914 44 210 4.0 5.0 0.00 0.00 0.00 59 1013.8
20260503043410 45 204 2.0 2.0 0.00 0.00 0.00 56 1014.0
20260503042906 44 207 2.0 2.0 0.00 0.00 0.00 58 1013.9
20260503042403 45 204 0.0 0.0 0.00 0.00 0.00 54 1013.8
20260503041859 44 183 0.0 1.0 0.00 0.00 0.00 56 1014.0
20260503041356 45 221 3.0 3.0 0.00 0.00 0.00 58 1013.8
20260503040854 45 231 1.0 1.0 0.00 0.00 0.00 57 1014.1
20260503040351 45 209 5.0 7.0 0.00 0.00 0.00 58 1014.0
20260503035848 45 227 2.0 2.0 0.00 0.01 0.01 59 1014.1
20260503035345 45 196 5.0 6.0 0.00 0.01 0.01 60 1014.1
20260503034842 45 219 3.0 3.0 0.00 0.01 0.01 61 1014.2
20260503034340 45 197 4.0 6.0 0.00 0.01 0.01 61 1014.0
20260503033837 45 206 5.0 6.0 0.00 0.01 0.01 61 1013.9
20260503033334 45 207 4.0 5.0 0.00 0.01 0.01 61 1014.1
20260503032832 45 229 3.0 5.0 0.00 0.01 0.01 60 1014.3
20260503032331 45 211 4.0 5.0 0.00 0.01 0.01 62 1014.0
20260503031828 45 199 2.0 3.0 0.00 0.01 0.01 63 1014.2
20260503031326 45 216 4.0 6.0 0.00 0.01 0.01 63 1014.1
20260503030822 45 221 5.0 7.0 0.00 0.01 0.01 65 1014.1
20260503030318 45 211 3.0 3.0 0.00 0.01 0.01 66 1014.2
20260503025815 45 207 4.0 6.0 0.00 0.01 0.01 66 1014.2
20260503025313 45 232 5.0 7.0 0.00 0.01 0.01 66 1014.1
20260503024809 45 191 4.0 6.0 0.00 0.01 0.01 66 1014.3
20260503024306 45 226 4.0 7.0 0.00 0.01 0.01 67 1014.2
20260503023803 45 199 6.0 7.0 0.00 0.01 0.01 67 1014.3
20260503023300 45 213 3.0 5.0 0.00 0.01 0.01 67 1014.2
20260503022757 45 203 0.0 0.0 0.00 0.01 0.01 68 1014.2
20260503022256 45 219 3.0 5.0 0.00 0.01 0.01 68 1014.1
20260503021753 45 209 5.0 6.0 0.00 0.01 0.01 68 1014.2
20260503021249 45 226 4.0 5.0 0.00 0.01 0.01 68 1014.4
20260503020748 45 198 2.0 2.0 0.00 0.01 0.01 68 1014.2
20260503020245 45 207 2.0 3.0 0.00 0.01 0.01 69 1014.5
20260503015741 45 213 3.0 3.0 0.00 0.01 0.01 69 1014.1
20260503015238 45 209 1.0 1.0 0.00 0.01 0.01 69 1014.3
20260503014734 45 192 2.0 2.0 0.00 0.01 0.01 68 1014.1
20260503014232 45 207 2.0 3.0 0.00 0.01 0.01 69 1014.1
20260503013729 46 204 2.0 2.0 0.00 0.01 0.01 69 1014.1
20260503013227 46 208 2.0 3.0 0.00 0.01 0.01 69 1014.1
20260503012724 46 213 2.0 2.0 0.00 0.01 0.01 69 1013.9
20260503012221 46 187 2.0 2.0 0.00 0.01 0.01 69 1014.1
20260503011717 46 229 2.0 3.0 0.00 0.01 0.01 69 1013.9
20260503011214 46 211 0.0 1.0 0.00 0.01 0.01 69 1013.9
20260503010710 46 205 3.0 5.0 0.00 0.01 0.01 69 1013.8
20260503010208 46 223 2.0 3.0 0.00 0.01 0.01 71 1013.9
20260503005705 46 210 1.0 2.0 0.00 0.01 0.01 71 1013.9
20260503005202 46 205 2.0 2.0 0.00 0.01 0.01 72 1013.7
20260503004658 46 215 2.0 2.0 0.00 0.01 0.01 72 1013.7
20260503004157 46 208 1.0 2.0 0.00 0.01 0.01 74 1013.7
20260503003654 46 205 2.0 3.0 0.00 0.01 0.01 74 1013.6
20260503003150 46 217 2.0 3.0 0.00 0.01 0.01 72 1013.3
20260503002647 46 223 2.0 2.0 0.00 0.01 0.01 71 1013.4
20260503002144 46 198 1.0 2.0 0.00 0.01 0.01 70 1013.3
20260503001640 46 213 4.0 5.0 0.00 0.01 0.01 70 1013.5
20260503001137 47 203 0.0 1.0 0.00 0.01 0.01 68 1013.5
20260503000635 47 207 1.0 1.0 0.00 0.01 0.01 67 1013.4
20260503000132 47 204 3.0 3.0 0.00 0.01 0.01 68 1013.5
20260502235628 47 184 1.0 1.0 0.00 0.01 0.01 66 1013.4
20260502235126 47 232 4.0 5.0 0.00 0.01 0.01 66 1013.4
20260502234622 47 176 5.0 7.0 0.00 0.01 0.01 66 1013.2
20260502234120 47 236 3.0 3.0 0.00 0.01 0.01 65 1013.1
20260502233615 47 207 1.0 2.0 0.00 0.01 0.01 65 1013.1
20260502233112 47 232 2.0 3.0 0.00 0.01 0.01 65 1013.3
20260502232608 47 206 4.0 6.0 0.00 0.01 0.01 65 1013.4
20260502232106 48 188 2.0 3.0 0.00 0.01 0.01 64 1013.2
20260502231602 48 216 2.0 2.0 0.00 0.01 0.01 65 1013.0
20260502231100 48 192 4.0 5.0 0.00 0.01 0.01 63 1013.4
20260502230558 48 94 1.0 2.0 0.00 0.01 0.01 62 1013.2
20260502230057 48 192 2.0 3.0 0.00 0.01 0.01 62 1013.1
20260502225552 48 197 2.0 3.0 0.00 0.01 0.01 62 1013.2
20260502225050 49 200 0.0 1.0 0.00 0.01 0.01 61 1013.1
20260502224545 49 190 0.0 1.0 0.00 0.01 0.01 63 1013.1
20260502224042 49 201 0.0 1.0 0.00 0.01 0.01 63 1013.2
20260502223540 49 213 3.0 3.0 0.00 0.01 0.01 64 1013.1
20260502223039 48 187 0.0 0.0 0.00 0.01 0.01 64 1013.0
20260502222535 48 208 1.0 2.0 0.00 0.01 0.01 65 1013.0
20260502222032 48 186 0.0 0.0 0.00 0.01 0.01 64 1012.9
20260502221527 48 181 2.0 3.0 0.00 0.01 0.01 66 1013.1
20260502221025 48 190 1.0 1.0 0.00 0.01 0.01 64 1013.0
20260502220520 48 240 2.0 3.0 0.00 0.01 0.01 64 1013.1
20260502220017 48 104 1.0 3.0 0.00 0.01 0.01 63 1012.9
20260502215515 48 203 2.0 2.0 0.00 0.01 0.01 64 1012.8
20260502215012 48 204 0.0 0.0 0.00 0.01 0.01 62 1012.9
20260502214509 49 190 0.0 0.0 0.00 0.01 0.01 63 1013.0
20260502214006 49 200 0.0 0.0 0.00 0.01 0.01 64 1012.8
20260502213502 49 197 2.0 3.0 0.00 0.01 0.01 63 1013.0
20260502213000 49 197 3.0 3.0 0.00 0.01 0.01 64 1012.8
20260502212459 49 199 3.0 3.0 0.00 0.01 0.01 62 1012.6